TISAT 1

Last updated on Sun Jun 21 2026 00:03:49 GMT+0000 (Coordinated Universal Time)

1 36799U 10035E 26171.38340039 .00017738 00000+0 57958-3 0 9992 2 36799 98.0706 118.2156 0001859 164.8533 195.2762 15.31812076868191
UTC large
Height (km)
Speed (km/s)
/
Latitude / Longitude
Inclination (degrees)
Orbital Period (minutes)
Azimuth
Elevation
Range (km)
Doppler Factor

Next 0 passes for location: London (51.5072 / 0.1276)

No passes found over London.
TISAT 1